Regional Weather Roundup
Issued by NWS Northern Indiana

Home | Current Version | Previous Version | Graphics & Text | Print | Product List | Glossary On
Versions: 1 2 3 4 5 6 7 8 9 10 11 12 13 14 15 16 17 18 19 20 21 22 23 24 25 26 27 28 29 30 31 32 33 34 35 36 37 38 39 40 41 42 43 44 45 46 47 48 49 50
706
ASUS43 KIWX 271910
RWRIWX

KIWX WEATHER ROUNDUP
NATIONAL WEATHER SERVICE NORTHERN INDIANA
300 PM EDT FRI MAY 27 2016

NOTE: "FAIR" INDICATES FEW OR NO CLOUDS BELOW 12,000 FEET WITH NO
SIGNIFICANT WEATHER AND/OR OBSTRUCTIONS TO VISIBILITY.

* THESE STATIONS ARE NOT UNDER NWS QUALITY CONTROL. THEY ALSO MAY NOT
  REPORT WEATHER SUCH AS PRECIPITATION OR FOG.

INZ001>027-272000-
NORTHERN INDIANA

CITY           SKY/WX    TMP DP  RH WIND       PRES   REMARKS
GARY*          PTSUNNY   82  70  65 S6        29.89F
VALPARAISO     PTSUNNY   84  62  47 S16G28    29.90F
MICHIGAN CITY* PTSUNNY   81  64  57 S7        29.91F
LAPORTE*       CLOUDY    83  64  51 S9        29.93F
KNOX*            N/A     82  48  30 SW9G21    29.92
SOUTH BEND     CLOUDY    79  64  60 S9        29.94F
ELKHART*       CLOUDY    81  68  65 SW8       29.96F
GOSHEN         CLOUDY    83  62  49 S13       29.95F
MONTICELLO*    MOSUNNY   84  57  39 S13G21    29.92F
LOGANSPORT*    PTSUNNY   86  61  42 SW21G28   29.94F
ROCHESTER*     MOSUNNY   86  63  45 S12G17    29.95F
WARSAW*        PTSUNNY   82  61  47 SW6       29.96F
ANGOLA*          N/A     81  75  83 SW9       29.98F
FORT WAYNE     PTSUNNY   85  60  42 SW10G18   29.97F
HUNTINGTON*    PTSUNNY  N/A N/A N/A S9        29.95F
PERU/GRISSOM   MOSUNNY   84  64  50 S17G23    29.94S
MARION*        MOSUNNY   86  60  41 S16G25    29.97F

$$
INZ028>050-272000-
CENTRAL INDIANA

CITY           SKY/WX    TMP DP  RH WIND       PRES   REMARKS
LAFAYETTE      CLOUDY    81  63  54 S12G18    29.91F
KOKOMO*        MOSUNNY   82  64  54 SW18G25   29.95F
MUNCIE*        MOSUNNY   87  60  40 SW7G16    29.97F
INDIANAPOLIS   CLOUDY    82  65  56 SE13      29.94F

$$
MIZ043>046-050>051-056>058-064>065-071>073-077>080-272000-
SOUTHWEST LOWER MICHIGAN

CITY           SKY/WX    TMP DP  RH WIND       PRES   REMARKS
BATTLE CREEK   MOSUNNY   79  64  60 S16       29.97F
BENTON HARBOR  CLOUDY    78  66  66 SE7       29.92F
COLDWATER*     CLOUDY    80  63  57 S8        29.98F
HILLSDALE*     CLOUDY    78  58  50 S7        30.00F
HOLLAND        CLOUDY    75  67  76 SW7       29.93F
GRAND RAPIDS   PTSUNNY   83  65  54 SW15G26   29.93F
KALAMAZOO      CLOUDY    80  65  59 S12       29.95F
STURGIS*       CLOUDY    79  64  60 S13       29.96F
THREE RIVERS*  FAIR      80  63  54 S8        29.96F

$$
OHZ001>008-015>018-024>025-272000-
NORTHWEST OHIO

CITY           SKY/WX    TMP DP  RH WIND       PRES   REMARKS
WAUSEON*         N/A     81  81 100 S9G16     29.99F
DEFIANCE       CLOUDY    84  62  47 S8        29.98F
FINDLAY        CLOUDY    86  59  39 SW12G20   29.98F
TOLEDO EXPRESS PTSUNNY   81  63  54 SW7       29.98F
TOLEDO METCALF CLOUDY    85  62  46 SW8       29.99F
LIMA           SUNNY     86  62  44 W12       29.99F

$$
AND FOR LAKE MICHIGAN COASTAL AND OPEN LAKE BUOY OBSERVATIONS

STATION/POSITION TEMP    WIND        PRES    VSBY  WAVE
                 AIR SEA DIR/SP/G                  HT/PER
                 (F)     (DEG/KT/KT) (MB)    (MI)  (FT/S)
CALUMET HARBOR    81     170/ 12/ 18 1011.4F
MICHIGAN CITY     78     180/ 13/ 16   N/A
BURNS HARBOR      80     190/ 11/ 19 1013.2F
SAINT JOSEPH      80     180/  2/  5 1013.9F
SOUTH LAKE BUOY   56 50  130/  8/  8 1012.3F         1/ 3
4 MI NW BRIDGMAN  72 65  160/  6/  8   N/A           1
MICHIGAN CITY     72 60  180/  6/ 10   N/A           1

$$
&&




USA.gov is the U.S. government's official web portal to all federal, state and local government web resources and services.